TimeCST,TemperatureF,Dew PointF,Humidity,Sea Level PressureIn,VisibilityMPH,Wind Direction,Wind SpeedMPH,Gust SpeedMPH,PrecipitationIn,Events,Conditions,WindDirDegrees,DateUTC
12:13 AM,53.6,50.0,88,29.87,6.0,WNW,9.2,-,0.01,Thunderstorm,Overcast,300,2012-12-10 06:13:00
12:28 AM,51.8,48.2,88,29.91,3.0,West,12.7,-,0.08,Rain,Light Rain,280,2012-12-10 06:28:00
12:34 AM,51.8,50.0,94,29.91,1.8,WNW,8.1,20.7,0.17,Rain,Heavy Rain,300,2012-12-10 06:34:00
12:44 AM,51.8,50.0,94,29.90,3.0,WNW,9.2,-,0.20,Rain,Rain,290,2012-12-10 06:44:00
12:53 AM,51.1,50.0,96,29.88,4.0,NW,6.9,-,0.21,Rain,Light Rain,320,2012-12-10 06:53:00
1:49 AM,51.8,46.4,82,29.89,8.0,WNW,10.4,-,0.00,Thunderstorm,Overcast,300,2012-12-10 07:49:00
1:53 AM,51.1,46.9,86,29.91,8.0,West,11.5,-,0.00,Thunderstorm,Overcast,280,2012-12-10 07:53:00
2:05 AM,50.0,46.4,87,29.88,5.0,North,5.8,17.3,0.02,Rain,Rain,350,2012-12-10 08:05:00
2:13 AM,50.0,46.4,87,29.87,4.0,NNW,12.7,19.6,0.05,Rain-Thunderstorm,Rain,330,2012-12-10 08:13:00
2:28 AM,50.0,46.4,87,29.86,6.0,NNW,6.9,-,0.07,,Overcast,330,2012-12-10 08:28:00
2:53 AM,50.0,46.0,86,29.86,6.0,NNW,6.9,16.1,0.09,Rain,Light Rain,340,2012-12-10 08:53:00
3:06 AM,50.0,44.6,82,29.88,10.0,NW,10.4,-,0.00,,Overcast,320,2012-12-10 09:06:00
3:53 AM,48.0,44.1,86,29.90,7.0,WNW,10.4,-,0.01,Rain,Light Rain,300,2012-12-10 09:53:00
4:53 AM,45.0,37.0,74,29.93,10.0,WNW,9.2,23.0,0.01,,Overcast,300,2012-12-10 10:53:00
5:53 AM,43.0,32.0,65,29.96,10.0,NW,16.1,25.3,N/A,,Overcast,310,2012-12-10 11:53:00
6:53 AM,39.0,27.0,62,30.02,10.0,NW,18.4,26.5,N/A,,Overcast,320,2012-12-10 12:53:00
7:53 AM,37.9,25.0,60,30.02,9.0,NNW,13.8,17.3,0.00,Snow,Light Snow,330,2012-12-10 13:53:00
8:53 AM,37.9,23.0,55,30.05,9.0,NW,11.5,-,0.00,Snow,Light Snow,310,2012-12-10 14:53:00
9:07 AM,39.2,21.2,49,30.05,9.0,NW,16.1,23.0,0.00,,Scattered Clouds,320,2012-12-10 15:07:00
9:53 AM,41.0,21.9,47,30.06,10.0,NW,12.7,21.9,0.00,,Clear,320,2012-12-10 15:53:00
10:53 AM,44.1,26.1,49,30.05,10.0,NW,13.8,19.6,N/A,,Mostly Cloudy,320,2012-12-10 16:53:00
11:53 AM,44.1,27.0,51,30.05,10.0,NNW,9.2,17.3,N/A,,Overcast,330,2012-12-10 17:53:00
12:53 PM,45.0,28.0,52,30.03,10.0,NW,11.5,20.7,N/A,,Clear,310,2012-12-10 18:53:00
1:53 PM,46.0,28.0,50,30.01,10.0,NW,12.7,-,N/A,,Clear,310,2012-12-10 19:53:00
2:53 PM,46.9,27.0,46,30.01,10.0,WNW,12.7,-,N/A,,Clear,300,2012-12-10 20:53:00
3:53 PM,46.0,26.1,46,30.02,10.0,WNW,12.7,19.6,N/A,,Clear,300,2012-12-10 21:53:00
4:53 PM,44.1,25.0,47,30.04,10.0,NW,9.2,-,N/A,,Clear,310,2012-12-10 22:53:00
5:53 PM,41.0,25.0,53,30.04,10.0,NNW,5.8,-,N/A,,Clear,340,2012-12-10 23:53:00
6:53 PM,39.0,26.1,60,30.06,10.0,NW,3.5,-,N/A,,Clear,310,2012-12-11 00:53:00
7:53 PM,37.9,26.1,62,30.07,10.0,NW,3.5,-,N/A,,Clear,310,2012-12-11 01:53:00
8:53 PM,35.1,26.1,70,30.09,10.0,West,4.6,-,N/A,,Clear,280,2012-12-11 02:53:00
9:53 PM,37.0,24.1,59,30.10,10.0,NW,6.9,-,0.00,,Clear,320,2012-12-11 03:53:00
10:53 PM,36.0,23.0,59,30.11,9.0,NNW,6.9,-,0.00,Snow,Light Snow,340,2012-12-11 04:53:00
11:53 PM,34.0,24.1,67,30.11,10.0,North,3.5,-,0.00,,Clear,350,2012-12-11 05:53:00